Rbgn^[z[y[W
メイン
   新天体発見情報
     Comet P/2010 A1 = 2018 P1 (Hill)
投稿するにはまず登録を

スレッド表示 | 新しいものから 前のトピック | 次のトピック | 下へ
投稿者 スレッド
佐藤裕久
投稿日時: 2018-8-21 22:52
モデレータ
登録日: 2005-6-12
居住地: 日本
投稿: 1904
オンライン
Comet P/2010 A1 = 2018 P1 (Hill)

Erwin Schwab (Egelsbach, ドイツ)の通報によると、彼は、8月10.2日UT、Pablo Ruizがスペイン領
カナリア諸島Tenerife島にあるESA(欧州宇宙機関)の光学地上局の1.0-m f/4.4反射望遠鏡で得た画像
からP/2010 A1を検出した。この彗星はp.a. 260°に約15"伸びたかすかな尾が見える。
M. Micheliの報告によると、8月12.3日、F. Monteiroと5人の他の観測者が、ブラジルNova Itacuruba
にあるObservatorio Astronomico do. Sertao de Itaparica (OASI)の 1.0-m f/7 反射望遠鏡で得た
観測で確認した。
MPC 94681のB. G. Marsdenの予報に対して、Delta(T)は、+0.39 dayであった。

検出位置は次のとおり、

     2018 UT             R.A. (2000) Decl.       Mag.   Observer
     Aug. 10.18050    3 57 28.00   +17 38 53.3   19.0   Ruiz
          10.18502    3 57 28.54   +17 38 56.0   19.1     "
          10.18804    3 57 28.90   +17 38 57.6   19.0     "
          12.29450    4 01 41.51   +17 58 57.9   20.7   Monteiro
          12.29700    4 01 41.82   +17 58 59.3   19.6     "
          12.29947    4 01 42.11   +17 59 00.7   20.6     "

連結軌道要素と位置推算表は次のとおり、

Orbital elements:
    P/2010 A1 (Hill)
Epoch 2009 July 28.0 TT = JDT 2455040.5
T 2009 Aug. 6.82073 TT                                  MPCW
q   1.9497940            (2000.0)            P               Q
n   0.10771688     Peri.   13.09169     +0.49495619     -0.85881793
a   4.3746859      Node    47.41972     +0.78018013     +0.37231361
e   0.5543008      Incl.   10.33492     +0.38254062     +0.35187261
P   9.15
From 150 observations 2010 Jan. 6-2018 Aug. 12, mean residual 0".6.

    P/2010 A1 (Hill)
Epoch 2018 Oct. 9.0 TT = JDT 2458400.5
T 2018 Oct. 15.15907 TT                                 MPCW
q   1.9571781            (2000.0)            P               Q
n   0.10712737     Peri.   13.28370     +0.49355692     -0.85970649
a   4.3907202      Node    47.32113     +0.78069911     +0.37128244
e   0.5542467      Incl.   10.30827     +0.38328902     +0.35079068
P   9.20
From 150 observations 2010 Jan. 6-2018 Aug. 12, mean residual 0".6.

    P/2010 A1 (Hill)
Epoch 2027 Dec. 21.0 TT = JDT 2461760.5
T 2027 Dec. 19.30725 TT                                 MPCW
q   1.9452280            (2000.0)            P               Q
n   0.10770645     Peri.   13.31499     +0.49434464     -0.85925888
a   4.3749683      Node    47.23858     +0.78022650     +0.37189628
e   0.5553732      Incl.   10.31950     +0.38323621     +0.35123687
P   9.15
From 150 observations 2010 Jan. 6-2018 Aug. 12, mean residual 0".6.

    P/2010 A1 (Hill)
Epoch 2018 Mar. 23.0 TT = JDT 2458200.5
T 2018 Oct. 15.19025 TT                                 MPCW
q   1.9570591            (2000.0)            P               Q
n   0.10716731     Peri.   13.29811     +0.49334304     -0.85982891
a   4.3896292      Node    47.32098     +0.78079089     +0.37108643
e   0.5541630      Incl.   10.30847     +0.38337741     +0.35069804
P   9.20
From 150 observations 2010 Jan. 6-2018 Aug. 12, mean residual 0".6.

Ephemeris:
    P/2010 A1 (Hill)
Date    TT    R. A. (2000) Decl.     Delta      r     Elong.  Phase   m1
2018 07 14    03 03 03.2 +13 00 29   2.3641  2.1304    64.3    25.5  20.2
...
2018 07 29    03 33 01.7 +15 38 51   2.1799  2.0815    70.9    27.4  19.9
...
2018 08 06    03 49 05.1 +16 58 36   2.0833  2.0583    74.5    28.3  19.7
...
2018 08 12    04 01 06.0 +17 56 09   2.0119  2.0423    77.2    28.9  19.6
2018 08 13    04 03 05.7 +18 05 34   2.0000  2.0398    77.7    29.0  19.6
2018 08 14    04 05 05.4 +18 14 55   1.9882  2.0373    78.1    29.1  19.6
...
2018 08 20    04 16 59.9 +19 09 55   1.9181  2.0229    80.9    29.6  19.5
...
2018 08 28    04 32 39.9 +20 20 29   1.8265  2.0059    84.8    30.1  19.3
...
2018 09 12    05 00 56.8 +22 25 38   1.6612  1.9805    92.6    30.5  19.1

(CBET 4538、MPEC 2018-P80)

スレッド表示 | 新しいものから 前のトピック | 次のトピック | トップ

投稿するにはまず登録を
 
© 1999 Tsutomu Seki.